Join Our Mailing List

Items Per Page

Sort By

Date Address Town County Zip Sale Price
10/26/2015 639 Green Valley Way Sykesville Carroll County 21784 $173,000
10/23/2015 802 Long Bar Harbor Rd. Abingdon Harford County 21009 $200,000
10/23/2015 8205 Wilson Ave. Parkville a/r/t/a Baltimore Baltimore County 21234 $87,500
10/23/2015 4317 Meadow Mills Rd. Owings Mills Baltimore County 21117 $133,000
10/23/2015 1515 E. 29th St. Baltimore Baltimore City 21218 $4,000
10/23/2015 5629 Cadillac Ave. Baltimore Baltimore City 21207 $28,500
10/23/2015 2521 Shirley Ave. Baltimore Baltimore City 21215 $8,000
10/22/2015 4804 Bowland Ave. Baltimore Baltimore City 21206 $26,500
10/21/2015 1337 Nalley Terr. Hyattsville Prince George's County 20785 $147,000
10/21/2015 9 Sultan Ave. Capitol Heights Prince George's County 20743 $51,000
10/21/2015 835 Briar Ct. Frederick Frederick County 21701 $193,000
10/21/2015 407 Silver Spring Ave. Silver Spring Montgomery County 20910 $345,000
10/21/2015 2018 Flowering Tree Terr. Silver Spring Montgomery County 20902 $188,000
10/20/2015 15621 Easthaven Ct., Unit #911 Bowie Prince George's County 20716 $66,000
10/20/2015 301 Southeastern Terr. Essex a/k/a Baltimore Baltimore County 21221 $43,500
10/20/2015 6112 Muncaster Mill Rd. Rockville Montgomery County 20855 $330,000
10/16/2015 3312 Camden St. Silver Spring Montgomery County 20902 $196,000
10/16/2015 4805 Crowson Ave. Baltimore Baltimore City 21212 $31,000
10/16/2015 2900 Cresmont Ave. Baltimore Baltimore City 21211 $129,000
10/15/2015 1019 Elton Ave. Baltimore Baltimore County 21224 $35,000
10/15/2015 2367 Sundew Terr. Baltimore Baltimore City 21209 $51,000
10/15/2015 3802 Fernhill Ave. Baltimore Baltimore City 21215 $35,000
10/14/2015 2701 Ritchie Marlboro Rd. Upper Marlboro Prince George's County 20774 $101,000
10/14/2015 4215 Mattawoman Creek Rd. e/r/t/a 0 Mattawoman Creek Rd. Marbury Charles County 20658 $86,000
10/14/2015 14200 Northwyn Dr. Silver Spring Montgomery County 20904 $289,000
10/14/2015 2000 North Anvil La. Temple Hills Prince George's County 20748 $107,000
10/09/2015 3079 Deepwater Way Edgewood Harford County 21040 $81,000
10/09/2015 10009 Lyons Mill Rd. Owings Mills Baltimore County 21117 $139,000
10/09/2015 228 Bentley Hill Dr. Reisterstown Baltimore County 21136 $121,000
10/09/2015 1640 Lyle Ct. Baltimore a/r/t/a Parkville Baltimore County 21234 $46,000
10/09/2015 908 Newington Ave. Baltimore Baltimore City 21217 $84,000
10/08/2015 40 Gunfalls Garth Baltimore Baltimore County 21236 $138,000
10/07/2015 1170 Neptune Pl. Annapolis Anne Arundel County 21409 $207,000
10/07/2015 1903 Oregon Ave. Hyattsville Prince George's County 20785 $112,000
10/07/2015 5245 Rising Sun La. Ellicott City Howard County 21043 $429,000
10/06/2015 5410 Indian Head Hwy. Indian Head Charles County 20640 $81,000
10/06/2015 510A Dembytown Rd. Joppa i/r/t/a Joppatown Harford County 21085 $79,500
10/06/2015 9815 Indian Queen Point Rd. Fort Washington Prince George's County 20744 $294,000
10/06/2015 507 Jacque Ct. Bowie Prince George's County 20721 $247,000
10/06/2015 8843 Rusland Ct. Fort Washington Prince George's County 20744 $65,000
10/06/2015 4504 Bishopmill Cir. Upper Marlboro Prince George's County 20772 $125,000
10/06/2015 3104 E. Fayette St. Baltimore Baltimore City 21224 $5,000
10/05/2015 10527 Keyser Point Rd. Ocean City Worcester County 21842 $177,000
10/05/2015 13500 Holly La., Unit #2, Bldg B Ocean City Worcester County 21842 $117,971
10/02/2015 113 W. Walnut St. North East Cecil County 21901 $139,000
10/02/2015 154 Glyndon Trace Dr., Unit #154 Reisterstown Baltimore County 21136 $99,000
10/02/2015 6818 Richardson Ave. Baltimore Baltimore County 21207 $73,500
10/02/2015 4442 Fenor Rd. Halethorpe Baltimore County 21227 $60,500
10/02/2015 6624 Belford Rd. Baltimore Baltimore City 21206 $
10/01/2015 95 Ohio Ave. Earleville Cecil County 21919 $43,000

Items Per Page

Sort By